Wind_Speed
14 14 16 19 21 24 26 27 28 33 34 34 35 36 37 37 37 36 35 34 33 33 33 33 33 33 34 34 35 35 34 34 33 32 31 30 28 27 25 24 24 24 25 25
9 10 12 14 17 19 22 23 25 30 32 33 35 36 37 37 36 36 35 33 32 33 33 33 34 34 35 36 36 36 36 35 34 33 31 29 27 24 23 22 22 22 23 24
4 6 7 9 11 12 15 16 20 24 28 28 31 29 32 34 34 33 33 32 32 32 33 33 35 36 37 37 37 36 36 36 34 31 29 28 26 23 22 21 21 22 22 23
5 5 6 6 7 7 9 15 17 19 19 18 23 18 24 29 29 31 31 31 32 32 33 34 35 37 37 37 37 36 36 35 33 31 29 27 25 24 23 23 23 23 23 23
7 7 7 8 9 9 11 13 14 15 16 16 18 16 18 27 26 27 29 30 31 32 33 34 35 36 36 36 36 35 34 34 33 31 29 28 27 26 25 25 24 24 24 25
8 9 9 10 11 11 12 13 13 13 13 12 16 15 15 23 22 23 25 26 26 27 28 30 31 32 33 34 34 34 34 34 33 32 32 31 29 28 27 27 27 26 27 27
7 8 9 9 8 11 11 10 9 10 10 11 17 15 17 19 18 19 20 22 23 24 25 27 29 31 32 33 35 35 36 36 35 35 34 33 32 31 31 30 30 29 29 29
4 5 8 8 7 8 10 10 10 11 11 12 17 17 19 17 17 18 19 21 22 24 26 28 29 31 33 35 36 37 37 38 38 37 37 36 35 34 34 33 32 32 31 31
4 6 9 8 8 9 9 9 11 13 13 14 13 18 19 18 19 20 21 23 24 26 28 29 31 33 35 37 38 39 39 40 40 40 39 38 38 37 37 36 35 34 34 33
5 5 8 9 9 9 10 11 12 12 12 13 14 17 20 20 20 23 25 26 28 30 32 33 35 37 38 40 41 42 43 43 43 43 42 42 41 40 39 39 38 37 36 36
6 6 7 10 10 11 13 13 13 14 15 16 16 19 23 24 25 27 29 31 33 35 37 38 39 40 42 43 44 45 46 46 46 46 46 45 45 44 43 42 41 40 39 38
7 8 9 11 12 13 14 15 16 17 19 21 22 27 25 27 29 31 33 35 37 39 40 42 43 44 45 47 48 48 49 50 50 50 50 50 49 48 47 47 46 45 43 41
9 10 11 12 17 19 18 18 19 21 23 24 25 31 31 32 33 34 36 38 39 41 42 44 45 46 48 49 50 51 52 53 54 55 55 55 55 54 53 52 51 49 47 45
12 12 13 14 16 19 21 21 22 24 26 27 29 33 35 36 38 39 40 41 43 44 45 46 47 49 50 52 54 55 56 58 59 60 60 61 60 59 58 58 56 53 52 50
14 14 16 17 19 21 22 23 25 27 28 30 32 36 39 40 41 43 44 45 46 47 48 50 52 53 55 57 59 61 62 63 65 66 66 66 66 65 64 63 62 60 57 54
16 17 18 19 21 23 24 25 27 29 31 34 36 39 39 42 43 44 46 47 49 51 53 55 57 60 62 64 66 68 69 70 71 72 72 72 72 71 70 69 67 64 61 59
17 18 19 21 22 25 26 27 30 31 33 35 38 40 42 43 44 46 49 52 54 57 59 62 64 66 68 70 72 73 74 75 76 77 77 77 77 75 73 71 70 67 64 61
18 20 21 23 25 26 28 29 31 33 34 36 39 41 44 47 49 52 55 58 60 63 65 68 70 72 74 75 76 77 77 77 77 77 76 76 76 76 74 72 70 68 65 62
20 22 23 25 27 30 29 31 33 35 37 39 42 45 48 51 54 57 61 64 66 69 71 73 74 74 74 73 72 72 70 69 68 68 67 67 66 66 65 65 64 63 62 60
22 23 25 27 28 30 34 35 37 40 42 45 48 50 54 57 60 63 66 69 71 73 73 72 70 68 66 64 62 59 57 55 53 52 51 51 50 50 50 50 51 52 53 53
24 25 26 28 31 33 35 37 39 42 47 50 53 56 60 63 66 68 70 72 72 70 66 63 59 55 52 50 48 46 44 43 41 39 38 36 36 37 38 38 39 40 42 44
25 27 28 30 32 36 38 40 42 45 49 53 56 60 64 67 69 70 70 69 65 60 55 51 48 45 42 40 39 37 35 35 34 32 31 30 30 30 30 30 31 32 34 37
26 28 30 31 33 37 40 43 46 49 53 57 61 64 68 69 70 68 66 60 55 50 46 43 41 38 36 35 34 33 31 31 30 30 29 29 28 27 26 26 26 27 29 32
28 30 32 34 36 39 43 46 50 54 58 62 65 68 69 68 66 62 57 51 46 42 40 39 37 35 34 34 34 33 32 32 31 31 30 30 28 26 25 25 26 26 28 30
31 33 35 38 40 43 46 50 54 58 62 65 67 67 66 63 59 55 49 44 40 37 37 36 36 35 35 35 34 34 34 34 34 33 32 32 29 28 26 26 26 26 26 29
33 36 39 41 44 47 50 54 58 61 64 67 68 66 61 57 53 48 43 40 38 37 37 37 36 37 37 37 36 36 36 36 35 35 33 31 29 28 27 26 26 27 28 29
Wind_Direction
276 268 258 251 245 243 245 244 245 247 249 250 252 255 258 261 263 265 267 268 269 269 270 271 274 276 280 283 287 289 290 293 295 295 296 296 296 295 294 295 294 295 296 296
288 275 266 259 253 251 250 249 250 253 253 253 255 258 262 264 265 267 268 268 267 267 267 269 272 275 278 281 285 287 288 291 293 295 294 295 295 295 295 295 295 295 297 298
286 281 278 268 262 258 255 251 253 257 261 263 264 267 269 267 267 268 267 267 267 267 268 269 272 275 279 282 284 285 287 290 291 292 293 293 294 295 295 296 296 298 299 300
296 297 294 293 282 275 273 264 265 268 269 269 270 265 272 274 270 269 268 268 268 269 270 272 274 277 279 281 283 285 286 288 290 292 292 293 294 295 295 296 297 299 301 302
290 294 297 294 286 282 274 279 279 279 278 275 278 270 265 276 274 273 273 272 272 272 272 273 275 277 278 280 281 283 286 288 290 292 293 293 293 293 293 293 294 296 298 300
291 295 292 287 289 289 289 293 297 298 295 285 276 274 263 274 279 278 276 276 276 276 277 276 276 277 278 279 281 284 286 288 290 291 291 291 291 291 290 289 291 292 294 296
306 303 297 293 299 301 300 304 311 306 298 284 287 287 271 285 285 282 281 280 279 279 278 277 277 278 278 280 281 282 284 286 287 288 289 289 288 287 286 286 287 289 290 292
318 306 299 302 296 287 292 291 287 277 277 280 295 293 289 292 290 288 286 285 284 282 280 279 278 277 278 279 280 281 283 283 284 285 286 286 285 284 284 284 284 286 287 288
294 287 303 305 305 305 303 296 285 287 291 291 286 288 293 292 291 290 287 284 282 281 279 278 277 277 278 279 279 280 280 281 282 282 282 282 282 283 283 283 284 285 285 287
292 292 300 308 314 315 307 302 300 299 292 288 290 295 293 293 288 285 284 283 282 281 281 279 278 277 277 277 278 278 278 278 279 280 281 281 282 282 282 282 283 283 284 285
307 310 311 313 315 313 312 308 303 297 293 291 286 282 286 291 288 286 284 283 282 281 281 279 279 278 277 277 277 278 278 278 279 279 280 280 281 281 281 282 282 282 283 284
314 317 315 310 311 310 309 307 304 302 300 299 300 293 297 294 292 290 288 287 285 283 282 281 280 279 278 278 278 277 277 278 278 278 279 279 280 281 281 282 282 282 282 283
321 321 323 322 316 315 313 311 307 305 305 305 304 296 303 300 298 295 293 291 289 286 284 283 282 281 280 279 278 278 277 278 278 278 278 279 279 279 280 281 281 281 282 282
320 321 316 310 301 304 309 311 310 309 307 305 302 298 303 302 301 299 297 295 292 290 288 286 285 284 283 281 280 280 279 278 278 278 278 278 277 277 278 279 279 279 280 280
317 316 313 311 308 308 308 309 309 308 307 305 302 301 303 303 302 300 299 297 295 293 292 290 289 287 286 284 282 280 279 277 277 276 276 276 275 275 276 276 276 276 276 277
316 315 315 313 311 310 311 312 310 309 308 307 305 304 305 303 302 301 300 299 298 296 294 293 291 289 286 284 282 281 279 278 278 277 276 275 274 274 274 273 273 274 274 274
321 321 321 318 316 314 315 315 312 311 309 308 307 307 306 305 305 305 303 301 300 299 297 294 292 290 288 286 284 281 280 279 278 278 276 275 274 274 273 273 272 271 271 270
326 325 324 322 319 317 318 316 314 312 311 310 309 308 308 308 307 306 304 302 301 299 298 295 293 291 289 288 286 285 283 282 280 279 277 276 275 274 274 272 271 270 269 267
330 328 326 325 322 319 321 318 316 314 313 312 311 311 310 309 308 307 306 305 303 301 299 298 296 295 293 292 291 289 288 286 284 282 281 278 276 274 272 270 268 267 265 263
331 330 327 325 322 321 321 319 317 316 315 315 314 313 312 311 311 310 308 307 305 303 302 301 300 299 298 296 295 293 292 290 289 286 284 281 278 275 272 268 265 261 258 256
329 328 326 323 320 319 319 319 319 318 318 317 317 316 315 314 313 312 310 309 307 306 306 305 305 305 304 303 301 299 297 295 293 291 289 286 282 278 273 269 264 259 254 249
327 325 325 323 322 322 322 320 320 319 319 318 318 317 316 316 315 313 312 311 310 310 309 309 310 311 311 309 306 304 302 299 297 296 294 291 287 282 275 269 264 259 252 244
327 326 325 325 324 322 322 322 322 322 321 321 320 320 319 318 317 315 314 313 312 312 311 311 312 313 314 312 311 309 306 302 300 299 298 294 289 284 277 269 263 258 250 241
328 328 327 327 327 326 326 325 325 325 324 324 324 323 321 320 318 317 316 316 314 313 312 312 313 313 313 311 310 308 306 303 302 301 299 295 290 283 276 268 263 258 249 238
331 331 331 330 329 329 328 328 328 328 327 327 326 324 323 321 321 320 320 319 318 316 315 314 314 313 313 311 309 306 304 303 302 301 299 295 289 281 275 270 263 256 246 236
333 333 332 332 331 331 331 330 329 329 329 328 328 327 326 324 324 323 322 321 319 317 316 315 314 313 313 311 309 306 304 303 301 300 298 293 287 281 274 268 261 253 242 232
Height
5871 5873 5873 5873 5875 5876 5878 5880 5882 5881 5882 5885 5885 5886 5886 5886 5887 5887 5887 5887 5887 5886 5885 5883 5882 5880 5878 5876 5873 5871 5868 5865 5863 5861 5859 5856 5854 5852 5849 5847 5844 5842 5840 5837
5870 5870 5870 5870 5871 5873 5874 5876 5877 5876 5877 5879 5879 5880 5879 5879 5880 5880 5880 5880 5880 5879 5878 5877 5875 5873 5871 5868 5866 5864 5861 5859 5857 5855 5852 5850 5848 5845 5843 5841 5838 5836 5834 5831
5869 5868 5868 5868 5869 5870 5871 5873 5873 5872 5872 5873 5874 5875 5873 5873 5873 5873 5873 5873 5872 5872 5871 5869 5867 5865 5863 5861 5859 5857 5854 5852 5850 5848 5846 5843 5841 5839 5837 5834 5832 5830 5827 5825
5867 5867 5867 5867 5867 5868 5869 5867 5867 5868 5869 5871 5869 5872 5869 5865 5866 5865 5865 5865 5865 5864 5863 5861 5859 5857 5855 5853 5851 5849 5846 5845 5843 5841 5839 5837 5834 5832 5830 5828 5826 5823 5821 5818
5867 5866 5866 5866 5865 5865 5865 5864 5864 5864 5864 5865 5865 5866 5867 5859 5859 5859 5858 5858 5857 5856 5855 5853 5851 5849 5847 5845 5843 5841 5839 5837 5835 5833 5831 5829 5828 5826 5824 5821 5819 5817 5814 5812
5865 5864 5864 5863 5862 5862 5862 5861 5861 5860 5861 5862 5860 5860 5861 5855 5854 5853 5851 5850 5849 5848 5847 5845 5843 5841 5839 5837 5835 5833 5831 5829 5827 5826 5824 5822 5820 5819 5817 5814 5812 5810 5807 5805
5864 5863 5862 5861 5861 5861 5860 5860 5861 5861 5861 5860 5855 5854 5854 5850 5848 5847 5846 5844 5843 5842 5840 5838 5836 5834 5832 5830 5828 5825 5823 5821 5819 5818 5816 5814 5812 5811 5809 5807 5804 5802 5800 5797
5864 5865 5861 5859 5859 5858 5858 5858 5859 5858 5858 5857 5852 5850 5848 5845 5843 5842 5840 5838 5837 5835 5833 5831 5829 5827 5824 5822 5820 5817 5815 5813 5811 5809 5807 5805 5803 5802 5800 5798 5796 5793 5791 5789
5863 5863 5860 5857 5856 5856 5855 5854 5854 5853 5852 5851 5850 5846 5843 5840 5838 5836 5835 5832 5830 5828 5826 5824 5821 5819 5816 5813 5811 5808 5806 5803 5801 5799 5798 5796 5794 5792 5790 5788 5786 5784 5782 5780
5861 5860 5859 5856 5855 5854 5853 5851 5850 5849 5848 5848 5847 5844 5841 5836 5833 5831 5828 5826 5823 5820 5818 5815 5812 5809 5807 5804 5801 5798 5795 5793 5791 5788 5786 5784 5782 5780 5779 5777 5775 5773 5771 5770
5858 5858 5858 5855 5853 5852 5850 5849 5846 5845 5844 5842 5842 5842 5835 5831 5828 5824 5821 5818 5815 5812 5808 5805 5802 5799 5796 5793 5790 5787 5784 5781 5778 5776 5774 5772 5770 5768 5766 5765 5763 5762 5760 5758
5857 5856 5855 5853 5851 5849 5847 5845 5843 5841 5839 5836 5834 5834 5829 5824 5821 5817 5814 5810 5806 5802 5799 5795 5791 5788 5784 5781 5777 5774 5771 5768 5765 5762 5760 5758 5756 5754 5752 5751 5750 5749 5747 5746
5855 5854 5852 5851 5850 5846 5843 5841 5838 5836 5833 5831 5828 5826 5821 5816 5812 5809 5805 5800 5796 5792 5788 5783 5779 5775 5771 5767 5763 5760 5756 5753 5750 5746 5744 5741 5739 5738 5736 5735 5735 5734 5733 5732
5853 5851 5850 5849 5846 5843 5839 5836 5833 5831 5827 5825 5821 5816 5811 5807 5803 5798 5794 5789 5784 5780 5775 5770 5766 5761 5757 5752 5748 5744 5740 5736 5732 5729 5726 5723 5721 5720 5719 5718 5718 5718 5718 5718
5850 5848 5846 5843 5840 5838 5835 5832 5828 5825 5821 5818 5814 5808 5803 5797 5792 5787 5782 5776 5771 5766 5760 5755 5750 5745 5740 5735 5730 5725 5721 5716 5713 5709 5706 5704 5702 5700 5700 5699 5700 5700 5701 5701
5847 5845 5842 5840 5836 5833 5829 5826 5822 5818 5814 5809 5805 5799 5794 5788 5781 5775 5769 5762 5756 5750 5744 5738 5732 5726 5721 5715 5709 5704 5699 5694 5690 5686 5683 5681 5680 5678 5678 5678 5679 5680 5681 5683
5843 5841 5838 5835 5831 5828 5824 5821 5816 5811 5807 5802 5796 5790 5783 5776 5770 5763 5755 5748 5741 5734 5726 5719 5712 5705 5699 5692 5686 5680 5674 5670 5665 5661 5658 5656 5654 5653 5654 5654 5656 5658 5660 5663
5840 5837 5834 5831 5827 5823 5821 5814 5809 5804 5798 5792 5786 5779 5772 5764 5757 5749 5740 5732 5725 5716 5707 5698 5690 5682 5674 5667 5660 5653 5648 5642 5638 5634 5631 5629 5628 5627 5627 5629 5631 5634 5638 5642
5835 5832 5829 5825 5821 5816 5813 5807 5800 5794 5789 5783 5775 5768 5760 5751 5743 5735 5724 5714 5705 5695 5685 5675 5665 5656 5647 5639 5632 5626 5621 5615 5611 5608 5605 5603 5601 5601 5602 5603 5606 5610 5614 5620
5831 5828 5824 5819 5815 5810 5805 5798 5791 5785 5778 5771 5763 5754 5745 5736 5727 5719 5706 5695 5683 5672 5661 5651 5641 5632 5623 5616 5608 5603 5598 5594 5590 5586 5584 5582 5580 5579 5580 5581 5583 5587 5592 5598
5827 5823 5819 5814 5808 5803 5797 5790 5784 5777 5769 5759 5750 5740 5730 5720 5709 5698 5686 5673 5661 5649 5639 5629 5620 5612 5605 5598 5591 5586 5582 5577 5574 5571 5569 5567 5565 5564 5564 5565 5567 5569 5573 5579
5823 5818 5813 5808 5802 5797 5789 5781 5775 5768 5758 5747 5737 5727 5715 5703 5691 5678 5665 5653 5641 5630 5621 5612 5604 5598 5592 5585 5579 5574 5570 5566 5562 5560 5558 5556 5554 5553 5552 5553 5554 5556 5559 5564
5818 5813 5807 5803 5798 5789 5780 5772 5764 5755 5745 5735 5723 5711 5698 5685 5672 5659 5647 5636 5625 5616 5608 5600 5594 5588 5582 5576 5570 5565 5561 5557 5553 5551 5549 5546 5545 5543 5542 5542 5544 5545 5548 5552
5812 5807 5801 5794 5788 5780 5772 5762 5753 5743 5732 5720 5708 5695 5681 5667 5655 5643 5632 5621 5612 5604 5596 5590 5584 5578 5574 5568 5562 5557 5552 5548 5545 5542 5539 5537 5535 5534 5533 5533 5535 5536 5538 5542
5806 5800 5793 5787 5779 5771 5762 5752 5741 5731 5719 5707 5694 5679 5665 5652 5640 5628 5618 5609 5601 5594 5587 5581 5575 5569 5564 5559 5554 5548 5543 5539 5535 5532 5529 5526 5524 5523 5523 5524 5525 5527 5530 5533
5800 5793 5786 5779 5770 5762 5753 5742 5731 5720 5707 5694 5680 5666 5652 5637 5626 5616 5607 5599 5592 5585 5578 5572 5566 5560 5555 5549 5544 5538 5533 5528 5524 5521 5518 5515 5514 5513 5513 5513 5515 5517 5521 5525